Regional Weather Roundup
Issued by NWS Kansas City/Pleasant Hill, MO

Home | Current Version | Previous Version | Text Only | Print | Product List | Glossary On
Versions: 1 2 3 4 5 6 7 8 9 10 11 12 13 14 15 16 17 18 19 20 21 22 23 24 25 26 27 28 29 30 31 32 33 34 35 36 37 38 39 40 41 42 43 44 45 46 47 48 49 50
216
ASUS43 KEAX 282010
RWREAX

WEATHER ROUNDUP FOR EASTERN KANSAS AND NORTHWEST MISSOURI
NATIONAL WEATHER SERVICE KANSAS CITY/PLEASANT HILL MO
300 PM CDT SUN MAY 28 2017

KSZ040-057-103>105-MOZ028-029-037-043-282100-
...KANSAS CITY METROPOLITAN AREA...

CITY           SKY/WX    TMP DP  RH WIND       PRES   REMARKS
K.C. INTL      MOSUNNY   79  53  40 W16G22    29.94S
K.C. DOWNTOWN  MOSUNNY   81  51  35 W15       29.92F
LEES SUMMIT    MOSUNNY   80  52  37 W12G21    29.94F
OLATHE - IXD   MOSUNNY   80  52  37 W9        29.96F
OLATHE - OJC   MOSUNNY   79  50  36 NW14G22   29.95F
LAWRENCE       MOSUNNY   81  54  39 W16G24    29.95F

$$

MOZ001>008-011>017-020>025-030>033-038>040-044>046-053-054-282100-
...NORTHERN AND CENTRAL MISSOURI...

CITY           SKY/WX    TMP DP  RH WIND       PRES   REMARKS
ST. JOSEPH     MOSUNNY   81  50  33 W14       29.93F
MOSBY          PTCLDY    77  52  41 NW9       29.92F
WARRENSBURG    SUNNY     77  54  44 SW9G17    29.93F
WHITEMAN AFB   SUNNY     79  57  47 W12G18    29.92S
CLINTON        MOSUNNY   77  57  50 W13       29.95F
SEDALIA        SUNNY     78  58  49 W10G17    29.93F
WARSAW         NOT AVBL
CHILLICOTHE      N/A     79  54  41 W9G17     29.90S
KIRKSVILLE     PTSUNNY   80  51  36 NW18G26   29.87F

$$

MOZ041-047>049-056>058-063>065-088>090-097-282100-
...EASTERN AND SOUTHERN MISSOURI...

CITY           SKY/WX    TMP DP  RH WIND       PRES   REMARKS
ST. LOUIS INTL PTSUNNY   80  61  52 NW13G24   29.85R
SPIRIT OF STL  PTSUNNY   77  61  57 NW10      29.85R
COLUMBIA       SUNNY     77  55  46 W15G22    29.91S
JEFFERSON CITY MOSUNNY   79  56  45 W16G23    29.90S
ROLLA          MOSUNNY   75  60  59 NW16      29.91R
OSAGE BEACH    MOSUNNY   76  58  53 W9G16     29.94S
SPRINGFIELD    MOSUNNY   76  58  53 NW12G20   29.97S
BRANSON        PTSUNNY   75  57  53 NW14G24   29.99R
JOPLIN         MOSUNNY   79  58  48 NW16G22   30.00F
WEST PLAINS    PTSUNNY   75  62  64 W9        29.94R

$$

IAZ060-094-KSZ022-034>040-054-083-096-NEZ052-066-093-282100-
...KANSAS...SOUTHEAST NEBRASKA AND IOWA...

CITY           SKY/WX    TMP DP  RH WIND       PRES   REMARKS
TOPEKA         MOSUNNY   82  56  40 W12       29.95F
MANHATTAN      MOSUNNY   81  52  36 W9        29.99S
EMPORIA        SUNNY     79  49  34 W15G22    30.00S
CHANUTE        SUNNY     81  50  33 W14       30.00F
WICHITA        MOSUNNY   82  47  29 NW14G21   30.03F
OMAHA          MOSUNNY   82  43  25 NW15G30   29.86F
LINCOLN        MOSUNNY   84  40  21 W17G31    29.91F
FALLS CITY     MOSUNNY   78  50  37 W16G23    29.93F
LAMONI         MOSUNNY   78  48  34 W17G24    29.89F
DES MOINES     MOSUNNY   79  47  32 NW14      29.83F

$$





USA.gov is the U.S. government's official web portal to all federal, state and local government web resources and services.